Showing default

HULIANWANG DIGUI-14, 62974

Orbit data source: Space-Track

HULIANWANG DIGUI-14, 62974 is a payload satellite owned by Zhongguo Xingwang (CN) in LEO that was launched on Tue, 11 Feb 2025 UTC via a CHANG ZHENG 8A launch vehicle from the Wenchang Satellite Launch Center (WSC). Payload-class satellites include a variety of spacecraft equipped with specific instruments for various scientific and technological missions. These include communications satellites like Starlink; space stations such as the ISS; scientific satellites like the Hubble; Earth observation satellites from companies like Planet Labs, Umbra, and HawkEye 360; GPS; miniature CubeSats for education and research; and military/defense satellites.

Loading next visibility...
Identifier
62974, 2025-030D
Orbit
LEO
Country
Flag of CNCN / PRC
Related business
Manufacturer
CAST
Mission
Operational Civil Communications
Bus & Motor
GUOWANG C, Unknown motor
Mass
~800 kg wet, ~800 kg dry
Launch date (UTC)
2025-02-11 (9 months ago)
Launch vehicle
CHANG ZHENG 8A
Launch site
Wenchang Satellite Launch Center (WSC)
Object type
Payload
Rocket body
Debris
Shape & HBR
Box + 2 Pan, 2.0 m
Radar Cross Section
5.935 m², Large (>1 m²)

Expand to show TLE details & history
Last TLE update: 17 hours ago

TLE from 17 hours ago
0 HULIANWANG DIGUI-14
1 62974U 25030D   25309.24291072 -.00000054  00000-0  15073-3 0  9993
2 62974  50.0041 318.8259 0000855 226.5766 133.5035 13.29326307 36070
Epoch: 2025-11-05T05:49Z
TLE epoch observation values (Epoch: 2025-11-05T05:49:47.486Z)
Latitude
-0.00001°
Longitude
-173.34035°
Altitude
1,150.255 km
Speed
7.279 km/s
True Right ascension
21h 15m 18s
True Declination
0° 00' 00"
Sunlit
Object was in daylight at epoch
Visualization orbit readout
Latitude
Unknown
Longitude
Unknown
Altitude
Unknown
Speed
Unknown
Apparent Right ascension
Unknown
Apparent Declination
Unknown
Sunlit
N/A
Visualization observer readout
Local Sidereal Time
18:21:39
Azimuth
Unknown
Elevation
Unknown
Doppler factor
Unknown
Orbital elements
Apogee altitude
1,150.654 km
Perigee altitude
1,149.367 km
Semi-major axis
7,528.147 km
Eccentricity
0.00009
Inclination
50.0041°
RAAN
318.8259°
Arg. of periapsis
226.5766°
True anomaly
133.51061°
Mean anomaly
133.5035°
Eccentric anomaly
133.50705°
Mean motion
3.32285 °/min
Orbital period
108.34 mins
BSTAR
0.00015073
Loading maneuver chart data...
Computing Atmospheric mass density...
Loading historical data...
Loading historical data...
Loading historical data...
Loading historical data...
Loading historical data...
Loading historical data...
Loading historical data...

Documentation

Showing up to 5 results
|